Погода в Стрые

Украина / Львовская область     49˚15′29″N   23˚50′34″E
темп.,
°C
ветер,
м/с
пор.,
м/с
влажн.,
%
обл.,
%
осадки,
мм/ч
давл.,
гПа
погр.,
м
5 декабря, сб
сб523:00+1˚юв33812 0.0 101439
02:00+1˚вюв348427 0.0 101460
05:00+1˚вюв34861 0.0 101454
08:00+1˚вюв34880 0.0 101572
11:00+4˚вюв35880 0.0 1016142
14:00+6˚вюв47860 0.0 1016171
17:00+4˚юв34890 0.0 101769
20:00+3˚юв36920 0.0 1018103
6 декабря, вс
вс623:00+2˚вюв47940 0.0 1019131
02:00+2˚юв49950 0.0 1020199
05:00+2˚вюв511957 0.0 1019253
08:00+2˚вюв5119422 0.0 1019327
11:00+4˚юв7128972 0.0 1019508
14:00+5˚вюв7128480 0.0 1018621
17:00+3˚вюв7148684 0.0 1018543
20:00+2˚вюв8148574 0.0 1018529
7 декабря, пн
пн723:00+1˚юв8148598 0.0 1018511
02:00+1˚вюв8148696 0.0 1017520
05:00вюв8148582 0.0 1016531
08:00−1˚вюв8148377 0.0 1016516
11:00−1˚вюв9147865 0.0 1016572
14:00+1˚юв9147257 0.0 1015608
17:00−1˚вюв815760 0.0 1016542
20:00−3˚вюв8148212 0.0 1017550
8 декабря, вт
вт823:00−3˚вюв8138092 0.0 1017546
02:00−3˚юв7128190 0.0 1017497
05:00−3˚юв7118366 0.0 1017462
08:00−2˚вюв6118483 0.0 1018448
11:00−1˚юв697992 0.0 1018469
14:00вюв587994 0.0 1018431
17:00−1˚вюв598695 0.0 1018367
20:00−2˚вюв599089 0.1 1019351
9 декабря, ср
ср923:00−2˚вюв489095 0.0 1019387
02:00−1˚вюв478997 0.0 1019334
05:00−2˚вюв489590 0.0 1019308
08:00−1˚вюв598885 0.0 1019462
11:00вюв698398 0.0 1018557
14:00+1˚вюв698098 0.0 1016606
17:00вюв5108897 0.0 1015466
20:00юв6119092 0.0 1015584